| time (UTC) | temp F | wind direction | speed knots | gust knots | rain 1hr in | rain 24hr in | rain mn in | humidity % | barometer mb |
| 20260505185003 | 55 | 32 | 7.0 | 10.4 | 0.00 | 0.00 | 0.00 | 66 | 1012.4 |
| 20260505184003 | 56 | 29 | 7.0 | 11.3 | 0.00 | 0.00 | 0.00 | 66 | 1012.4 |
| 20260505183003 | 56 | 25 | 7.0 | 12.2 | 0.00 | 0.00 | 0.00 | 65 | 1012.4 |
| 20260505182003 | 56 | 27 | 6.1 | 10.4 | 0.00 | 0.00 | 0.00 | 64 | 1012.4 |
| 20260505181216 | 56 | 32 | 6.1 | 10.4 | 0.00 | 0.00 | 0.00 | 64 | 1012.4 |
| 20260505180003 | 57 | 24 | 6.1 | 10.4 | 0.00 | 0.00 | 0.00 | 63 | 1012.4 |
| 20260505175218 | 57 | 14 | 4.3 | 10.4 | 0.00 | 0.00 | 0.00 | 63 | 1012.3 |
| 20260505174003 | 58 | 10 | 3.5 | 8.7 | 0.00 | 0.00 | 0.00 | 61 | 1012.4 |
| 20260505173003 | 58 | 19 | 3.5 | 8.7 | 0.00 | 0.00 | 0.00 | 62 | 1012.5 |
| 20260505172003 | 58 | 21 | 7.0 | 13.0 | 0.00 | 0.00 | 0.00 | 61 | 1012.4 |
| 20260505171218 | 58 | 22 | 7.8 | 12.2 | 0.00 | 0.00 | 0.00 | 60 | 1012.5 |
| 20260505170003 | 59 | 10 | 4.3 | 13.9 | 0.00 | 0.00 | 0.00 | 60 | 1012.5 |
| 20260505165218 | 60 | 3 | 6.1 | 14.8 | 0.00 | 0.00 | 0.00 | 58 | 1012.4 |
| 20260505164003 | 60 | 1 | 4.3 | 13.0 | 0.00 | 0.00 | 0.00 | 56 | 1012.4 |
| 20260505163003 | 61 | 8 | 3.5 | 7.8 | 0.00 | 0.00 | 0.00 | 58 | 1012.4 |
| 20260505162217 | 61 | 2 | 4.3 | 11.3 | 0.00 | 0.00 | 0.00 | 56 | 1012.4 |
| 20260505161003 | 63 | 15 | 6.1 | 13.0 | 0.00 | 0.00 | 0.00 | 53 | 1012.5 |
| 20260505160217 | 62 | 2 | 4.3 | 10.4 | 0.00 | 0.00 | 0.00 | 58 | 1012.5 |
| 20260505153003 | 61 | 357 | 4.3 | 12.2 | 0.00 | 0.00 | 0.00 | 56 | 1012.6 |
| 20260505152003 | 61 | 327 | 3.5 | 10.4 | 0.00 | 0.00 | 0.00 | 56 | 1012.6 |
| 20260505151003 | 61 | 341 | 4.3 | 12.2 | 0.00 | 0.00 | 0.00 | 57 | 1012.7 |
| 20260505125003 | 62 | 16 | 4.3 | 10.4 | 0.00 | 0.00 | 0.00 | 59 | 1013.2 |
| 20260505124003 | 61 | 323 | 4.3 | 10.4 | 0.00 | 0.00 | 0.00 | 59 | 1013.2 |
| 20260505123003 | 62 | 28 | 6.1 | 13.0 | 0.00 | 0.00 | 0.00 | 57 | 1013.1 |
| 20260505122003 | 63 | 24 | 4.3 | 10.4 | 0.00 | 0.00 | 0.00 | 61 | 1013.2 |
| 20260505121003 | 62 | 23 | 3.5 | 8.7 | 0.00 | 0.00 | 0.00 | 62 | 1013.3 |
| 20260505120218 | 62 | 19 | 4.3 | 11.3 | 0.00 | 0.00 | 0.00 | 60 | 1013.3 |
| 20260505115003 | 62 | 17 | 4.3 | 13.9 | 0.00 | 0.00 | 0.00 | 61 | 1013.3 |
| 20260505114003 | 60 | 6 | 6.1 | 13.0 | 0.00 | 0.00 | 0.00 | 58 | 1013.3 |
| 20260505113003 | 61 | 4 | 6.1 | 13.0 | 0.00 | 0.00 | 0.00 | 58 | 1013.4 |
| 20260505112003 | 61 | 12 | 7.0 | 13.0 | 0.00 | 0.00 | 0.00 | 59 | 1013.5 |
| 20260505111003 | 63 | 15 | 4.3 | 12.2 | 0.00 | 0.00 | 0.00 | 61 | 1013.5 |
| 20260505102003 | 62 | 47 | 6.1 | 8.7 | 0.00 | 0.00 | 0.00 | 66 | 1013.7 |
| 20260505101003 | 61 | 34 | 6.1 | 10.4 | 0.00 | 0.00 | 0.00 | 67 | 1013.7 |
| 20260505100003 | 60 | 36 | 6.1 | 11.3 | 0.00 | 0.00 | 0.00 | 63 | 1013.8 |
| 20260505095003 | 59 | 38 | 7.0 | 10.4 | 0.00 | 0.00 | 0.00 | 68 | 1013.8 |
| 20260505094003 | 58 | 35 | 7.0 | 12.2 | 0.00 | 0.00 | 0.00 | 68 | 1013.8 |
| 20260505093005 | 58 | 24 | 4.3 | 8.7 | 0.00 | 0.00 | 0.00 | 71 | 1013.8 |
| 20260505092003 | 56 | 30 | 4.3 | 10.4 | 0.00 | 0.00 | 0.00 | 73 | 1013.8 |
| 20260505091003 | 55 | 24 | 7.0 | 12.2 | 0.00 | 0.00 | 0.00 | 73 | 1013.9 |
| 20260505090005 | 55 | 17 | 4.3 | 8.7 | 0.00 | 0.00 | 0.00 | 78 | 1013.9 |
| 20260505085004 | 55 | 36 | 6.1 | 10.4 | 0.00 | 0.00 | 0.00 | 75 | 1013.9 |
| 20260505084004 | 55 | 17 | 4.3 | 11.3 | 0.00 | 0.00 | 0.00 | 76 | 1013.9 |
| 20260505083005 | 56 | 21 | 4.3 | 10.4 | 0.00 | 0.00 | 0.00 | 79 | 1014.0 |
| 20260505082003 | 55 | 27 | 7.8 | 12.2 | 0.00 | 0.00 | 0.00 | 82 | 1014.0 |
| 20260505081003 | 54 | 21 | 6.1 | 11.3 | 0.00 | 0.00 | 0.00 | 82 | 1014.0 |
| 20260505080216 | 54 | 36 | 4.3 | 8.7 | 0.00 | 0.00 | 0.00 | 85 | 1014.0 |
| 20260505075003 | 53 | 37 | 4.3 | 10.4 | 0.00 | 0.00 | 0.00 | 87 | 1013.9 |
| 20260505074003 | 52 | 28 | 4.3 | 8.7 | 0.00 | 0.00 | 0.00 | 88 | 1014.0 |
| 20260505073216 | 52 | 27 | 6.1 | 10.4 | 0.00 | 0.00 | 0.00 | 88 | 1013.9 |
| 20260505072003 | 52 | 23 | 4.3 | 10.4 | 0.00 | 0.00 | 0.00 | 90 | 1014.0 |
| 20260505071003 | 51 | 29 | 3.5 | 8.7 | 0.00 | 0.00 | 0.00 | 91 | 1014.0 |
| 20260505070218 | 51 | 38 | 3.5 | 8.7 | 0.00 | 0.00 | 0.00 | 92 | 1014.0 |
| 20260505065218 | 50 | 35 | 2.6 | 7.0 | 0.00 | 0.00 | 0.00 | 93 | 1014.1 |
| 20260505064003 | 50 | 32 | 2.6 | 7.0 | 0.00 | 0.00 | 0.00 | 94 | 1014.0 |
| 20260505063003 | 50 | 21 | 2.6 | 7.0 | 0.00 | 0.00 | 0.00 | 95 | 1014.0 |
| 20260505062003 | 49 | 25 | 2.6 | 7.0 | 0.00 | 0.00 | 0.00 | 95 | 1014.0 |
| 20260505061003 | 49 | 18 | 2.6 | 7.0 | 0.00 | 0.00 | 0.00 | 95 | 1013.9 |
| 20260505060003 | 49 | 21 | 2.6 | 6.1 | 0.00 | 0.00 | 0.00 | 96 | 1013.8 |
| 20260505055003 | 49 | 21 | 1.7 | 7.8 | 0.00 | 0.00 | 0.00 | 96 | 1013.8 |
| 20260505054003 | 49 | 28 | 2.6 | 7.0 | 0.00 | 0.00 | 0.00 | 96 | 1013.7 |
| 20260505053003 | 48 | 5 | 1.7 | 6.1 | 0.00 | 0.00 | 0.00 | 96 | 1013.7 |
| 20260505052003 | 48 | 357 | 1.7 | 5.2 | 0.00 | 0.00 | 0.00 | 97 | 1013.7 |
| 20260505051003 | 48 | 356 | 1.7 | 5.2 | 0.00 | 0.00 | 0.00 | 97 | 1013.6 |
| 20260505041217 | 48 | 0 | 0.0 | 1.7 | 0.00 | 0.00 | 0.00 | 96 | 1013.7 |
| 20260505040004 | 48 | 30 | 0.9 | 3.5 | 0.00 | 0.00 | 0.00 | 96 | 1013.5 |
| 20260505035003 | 48 | 347 | 0.9 | 3.5 | 0.00 | 0.00 | 0.00 | 96 | 1013.4 |
| 20260505034003 | 48 | 0 | 0.0 | 0.0 | 0.00 | 0.00 | 0.00 | 94 | 1013.4 |
| 20260505033003 | 49 | 0 | 0.0 | 1.7 | 0.00 | 0.00 | 0.00 | 95 | 1013.4 |
| 20260505032217 | 49 | 16 | 0.9 | 3.5 | 0.00 | 0.00 | 0.00 | 95 | 1013.4 |
| 20260505031217 | 50 | 12 | 1.7 | 5.2 | 0.00 | 0.00 | 0.00 | 95 | 1013.3 |
| 20260505030003 | 50 | 358 | 1.7 | 4.3 | 0.00 | 0.00 | 0.00 | 95 | 1013.4 |
| 20260505025003 | 50 | 356 | 0.9 | 3.5 | 0.00 | 0.00 | 0.00 | 95 | 1013.4 |
| 20260505024003 | 50 | 353 | 0.9 | 3.5 | 0.00 | 0.00 | 0.00 | 95 | 1013.5 |
| 20260505023003 | 50 | 15 | 0.9 | 2.6 | 0.00 | 0.00 | 0.00 | 95 | 1013.5 |
| 20260505022003 | 50 | 19 | 0.9 | 1.7 | 0.00 | 0.00 | 0.00 | 95 | 1013.6 |
| 20260505021003 | 50 | 0 | 0.0 | 1.7 | 0.00 | 0.00 | 0.00 | 95 | 1013.7 |
| 20260505020003 | 50 | 19 | 0.9 | 1.7 | 0.00 | 0.00 | 0.00 | 95 | 1013.7 |
| 20260505015004 | 50 | 25 | 0.9 | 2.6 | 0.00 | 0.00 | 0.00 | 95 | 1013.8 |
| 20260505014003 | 50 | 16 | 1.7 | 3.5 | 0.00 | 0.00 | 0.00 | 95 | 1013.8 |
| 20260505013003 | 50 | 8 | 1.7 | 4.3 | 0.00 | 0.00 | 0.00 | 95 | 1013.8 |
| 20260505012003 | 50 | 6 | 1.7 | 4.3 | 0.00 | 0.00 | 0.00 | 95 | 1013.9 |
| 20260505011003 | 51 | 333 | 0.9 | 2.6 | 0.00 | 0.00 | 0.00 | 95 | 1013.9 |
| 20260505010218 | 51 | 319 | 1.7 | 4.3 | 0.00 | 0.00 | 0.00 | 95 | 1013.9 |
| 20260505005003 | 51 | 12 | 0.9 | 2.6 | 0.00 | 0.00 | 0.00 | 95 | 1014.0 |
| 20260505004003 | 51 | 47 | 0.9 | 3.5 | 0.00 | 0.00 | 0.00 | 96 | 1014.2 |
| 20260505003218 | 51 | 56 | 1.7 | 3.5 | 0.00 | 0.00 | 0.00 | 96 | 1014.2 |
| 20260505002004 | 50 | 0 | 0.0 | 0.0 | 0.00 | 0.00 | 0.00 | 96 | 1014.3 |
| 20260505001003 | 50 | 0 | 0.0 | 0.0 | 0.00 | 0.00 | 0.00 | 96 | 1014.4 |
| 20260505000003 | 50 | 0 | 0.0 | 0.0 | 0.00 | 0.00 | 0.00 | 96 | 1014.3 |
| 20260504235003 | 50 | 0 | 0.0 | 0.9 | 0.00 | 0.00 | 0.00 | 94 | 1014.3 |
| 20260504234004 | 50 | 316 | 0.9 | 2.6 | 0.00 | 0.00 | 0.00 | 94 | 1014.4 |
| 20260504233003 | 51 | 338 | 1.7 | 2.6 | 0.00 | 0.00 | 0.00 | 94 | 1014.3 |
| 20260504232004 | 51 | 8 | 0.9 | 3.5 | 0.00 | 0.00 | 0.00 | 94 | 1014.2 |
| 20260504231004 | 51 | 342 | 0.9 | 3.5 | 0.00 | 0.00 | 0.00 | 94 | 1014.2 |
| 20260504230219 | 52 | 333 | 2.6 | 5.2 | 0.00 | 0.00 | 0.00 | 94 | 1014.1 |
| 20260504225004 | 52 | 351 | 1.7 | 4.3 | 0.00 | 0.00 | 0.00 | 94 | 1014.1 |
| 20260504224003 | 52 | 18 | 1.7 | 3.5 | 0.00 | 0.00 | 0.00 | 93 | 1014.2 |
| 20260504223003 | 52 | 0 | 0.0 | 2.6 | 0.00 | 0.00 | 0.00 | 93 | 1014.3 |
| 20260504222003 | 52 | 0 | 0.0 | 0.0 | 0.00 | 0.00 | 0.00 | 92 | 1014.3 |
| 20260504221003 | 52 | 0 | 0.0 | 1.7 | 0.00 | 0.00 | 0.00 | 92 | 1014.3 |
| 20260504220005 | 53 | 322 | 0.9 | 2.6 | 0.00 | 0.00 | 0.00 | 92 | 1014.3 |
| 20260504215003 | 53 | 0 | 0.0 | 1.7 | 0.00 | 0.00 | 0.00 | 91 | 1014.3 |
| 20260504214003 | 54 | 322 | 0.9 | 2.6 | 0.00 | 0.00 | 0.00 | 90 | 1014.3 |
| 20260504213003 | 54 | 338 | 0.9 | 3.5 | 0.00 | 0.00 | 0.00 | 90 | 1014.3 |
| 20260504212003 | 54 | 23 | 0.9 | 3.5 | 0.00 | 0.00 | 0.00 | 90 | 1014.3 |
| 20260504211005 | 54 | 25 | 0.9 | 2.6 | 0.00 | 0.00 | 0.00 | 91 | 1014.2 |
| 20260504210004 | 55 | 31 | 1.7 | 4.3 | 0.00 | 0.00 | 0.00 | 91 | 1014.2 |
| 20260504205003 | 55 | 41 | 2.6 | 4.3 | 0.00 | 0.00 | 0.00 | 91 | 1014.2 |
| 20260504204003 | 55 | 51 | 1.7 | 3.5 | 0.00 | 0.00 | 0.00 | 92 | 1014.4 |
| 20260504203003 | 55 | 69 | 0.9 | 2.6 | 0.00 | 0.00 | 0.00 | 92 | 1014.3 |
| 20260504202003 | 56 | 73 | 0.9 | 2.6 | 0.00 | 0.00 | 0.00 | 92 | 1014.4 |
| 20260504201003 | 56 | 76 | 0.9 | 1.7 | 0.00 | 0.00 | 0.00 | 92 | 1014.1 |
| 20260504200004 | 56 | 77 | 0.9 | 2.6 | 0.00 | 0.00 | 0.00 | 92 | 1014.0 |
| 20260504195003 | 56 | 0 | 0.0 | 0.9 | 0.00 | 0.00 | 0.00 | 91 | 1014.0 |
| 20260504194003 | 56 | 77 | 0.9 | 3.5 | 0.00 | 0.00 | 0.00 | 91 | 1014.0 |
| 20260504193218 | 56 | 54 | 1.7 | 4.3 | 0.00 | 0.00 | 0.00 | 91 | 1013.8 |
| 20260504192003 | 57 | 53 | 1.7 | 3.5 | 0.00 | 0.00 | 0.00 | 90 | 1013.7 |
| 20260504191003 | 57 | 46 | 2.6 | 5.2 | 0.00 | 0.00 | 0.00 | 90 | 1013.7 |
| 20260504190218 | 57 | 53 | 3.5 | 6.1 | 0.00 | 0.00 | 0.00 | 90 | 1013.7 |